| time (UTC) | temp F | wind direction | speed MPH | gust MPH | rain 1hr in | rain 24hr in | rain mn in | humidity % | barometer mb |
| 20260506182508 | 58 | 170 | 6.0 | 13.0 | 0.03 | 0.12 | 0.12 | 90 | 1007.2 |
| 20260506182015 | 58 | 178 | 7.0 | 11.0 | 0.04 | 0.12 | 0.12 | 90 | 1007.3 |
| 20260506181526 | 58 | 167 | 4.0 | 14.0 | 0.04 | 0.12 | 0.12 | 91 | 1007.3 |
| 20260506181003 | 58 | 194 | 7.0 | 14.0 | 0.03 | 0.11 | 0.11 | 91 | 1007.3 |
| 20260506180506 | 58 | 211 | 6.0 | 10.0 | 0.04 | 0.11 | 0.11 | 90 | 1007.4 |
| 20260506180018 | 58 | 218 | 3.0 | 9.0 | 0.04 | 0.10 | 0.10 | 90 | 1007.3 |
| 20260506175507 | 59 | 209 | 5.0 | 9.0 | 0.04 | 0.09 | 0.09 | 90 | 1007.4 |
| 20260506175008 | 59 | 199 | 3.0 | 11.0 | 0.05 | 0.09 | 0.09 | 90 | 1007.3 |
| 20260506174522 | 59 | 211 | 5.0 | 13.0 | 0.06 | 0.09 | 0.09 | 90 | 1007.3 |
| 20260506174010 | 59 | 187 | 6.0 | 15.0 | 0.07 | 0.09 | 0.09 | 90 | 1007.3 |
| 20260506173506 | 59 | 150 | 5.0 | 15.0 | 0.08 | 0.09 | 0.09 | 90 | 1007.3 |
| 20260506173006 | 59 | 205 | 4.0 | 15.0 | 0.08 | 0.09 | 0.09 | 89 | 1007.3 |
| 20260506172502 | 59 | 184 | 5.0 | 15.0 | 0.09 | 0.09 | 0.09 | 89 | 1007.3 |
| 20260506172003 | 59 | 142 | 6.0 | 13.0 | 0.08 | 0.08 | 0.08 | 89 | 1007.3 |
| 20260506171515 | 59 | 211 | 6.0 | 12.0 | 0.08 | 0.08 | 0.08 | 89 | 1007.7 |
| 20260506171007 | 59 | 209 | 6.0 | 8.0 | 0.08 | 0.08 | 0.08 | 88 | 1007.7 |
| 20260506170511 | 59 | 142 | 4.0 | 8.0 | 0.07 | 0.07 | 0.07 | 88 | 1007.7 |
| 20260506170021 | 59 | 192 | 4.0 | 8.0 | 0.06 | 0.06 | 0.06 | 87 | 1008.1 |
| 20260506165510 | 60 | 190 | 3.0 | 12.0 | 0.05 | 0.05 | 0.05 | 86 | 1008.2 |
| 20260506165006 | 60 | 180 | 4.0 | 14.0 | 0.04 | 0.04 | 0.04 | 85 | 1008.7 |
| 20260506164520 | 60 | 174 | 5.0 | 14.0 | 0.03 | 0.03 | 0.03 | 85 | 1008.7 |
| 20260506164009 | 60 | 184 | 6.0 | 12.0 | 0.02 | 0.02 | 0.02 | 84 | 1008.7 |
| 20260506163507 | 61 | 239 | 6.0 | 10.0 | 0.01 | 0.01 | 0.01 | 84 | 1008.7 |
| 20260506163040 | 61 | 198 | 4.0 | 10.0 | 0.01 | 0.01 | 0.01 | 83 | 1008.8 |
| 20260506162507 | 61 | 212 | 3.0 | 10.0 | 0.00 | 0.00 | 0.00 | 82 | 1008.6 |
| 20260506162014 | 61 | 209 | 5.0 | 13.0 | 0.00 | 0.00 | 0.00 | 81 | 1008.5 |
| 20260506161512 | 62 | 193 | 6.0 | 13.0 | 0.00 | 0.00 | 0.00 | 81 | 1008.6 |
| 20260506161002 | 62 | 189 | 8.0 | 13.0 | 0.00 | 0.00 | 0.00 | 80 | 1008.6 |
| 20260506160506 | 62 | 211 | 5.0 | 19.0 | 0.00 | 0.00 | 0.00 | 78 | 1008.7 |
| 20260506160015 | 62 | 197 | 7.0 | 19.0 | 0.00 | 0.00 | 0.00 | 78 | 1008.7 |
| 20260506155504 | 62 | 210 | 11.0 | 19.0 | 0.00 | 0.00 | 0.00 | 77 | 1008.8 |
| 20260506155006 | 62 | 211 | 6.0 | 18.0 | 0.00 | 0.00 | 0.00 | 77 | 1008.8 |
| 20260506154530 | 62 | 207 | 8.0 | 18.0 | 0.00 | 0.00 | 0.00 | 77 | 1009.0 |
| 20260506154010 | 62 | 182 | 8.0 | 18.0 | 0.00 | 0.00 | 0.00 | 77 | 1009.1 |
| 20260506153512 | 62 | 196 | 9.0 | 18.0 | 0.00 | 0.00 | 0.00 | 77 | 1009.1 |
| 20260506153027 | 62 | 238 | 7.0 | 13.0 | 0.00 | 0.00 | 0.00 | 77 | 1009.1 |
| 20260506152510 | 62 | 239 | 8.0 | 13.0 | 0.00 | 0.00 | 0.00 | 77 | 1009.1 |
| 20260506152014 | 62 | 180 | 7.0 | 17.0 | 0.00 | 0.00 | 0.00 | 77 | 1009.2 |
| 20260506151534 | 62 | 203 | 10.0 | 17.0 | 0.00 | 0.00 | 0.00 | 77 | 1009.1 |
| 20260506151008 | 62 | 169 | 9.0 | 14.0 | 0.00 | 0.00 | 0.00 | 78 | 1009.1 |
| 20260506150503 | 61 | 228 | 7.0 | 13.0 | 0.00 | 0.00 | 0.00 | 78 | 1009.3 |
| 20260506150010 | 61 | 189 | 5.0 | 21.0 | 0.00 | 0.00 | 0.00 | 78 | 1009.3 |
| 20260506145508 | 61 | 255 | 11.0 | 21.0 | 0.00 | 0.00 | 0.00 | 78 | 1009.4 |
| 20260506145005 | 61 | 213 | 9.0 | 18.0 | 0.00 | 0.00 | 0.00 | 78 | 1009.3 |
| 20260506144517 | 61 | 251 | 7.0 | 18.0 | 0.00 | 0.00 | 0.00 | 79 | 1009.4 |
| 20260506144004 | 61 | 204 | 5.0 | 16.0 | 0.00 | 0.00 | 0.00 | 79 | 1009.5 |
| 20260506143507 | 61 | 207 | 9.0 | 17.0 | 0.00 | 0.00 | 0.00 | 79 | 1009.5 |
| 20260506143022 | 61 | 217 | 6.0 | 17.0 | 0.00 | 0.00 | 0.00 | 79 | 1009.5 |
| 20260506142508 | 61 | 199 | 5.0 | 17.0 | 0.00 | 0.00 | 0.00 | 79 | 1009.4 |
| 20260506142010 | 60 | 198 | 8.0 | 18.0 | 0.00 | 0.00 | 0.00 | 80 | 1009.4 |
| 20260506141526 | 60 | 201 | 6.0 | 18.0 | 0.00 | 0.00 | 0.00 | 80 | 1009.3 |
| 20260506141016 | 60 | 228 | 9.0 | 17.0 | 0.00 | 0.00 | 0.00 | 79 | 1009.2 |
| 20260506140508 | 60 | 200 | 6.0 | 16.0 | 0.00 | 0.00 | 0.00 | 80 | 1009.3 |
| 20260506140033 | 60 | 197 | 9.0 | 16.0 | 0.00 | 0.00 | 0.00 | 80 | 1009.4 |
| 20260506135514 | 60 | 183 | 8.0 | 14.0 | 0.00 | 0.00 | 0.00 | 80 | 1009.3 |
| 20260506135004 | 60 | 219 | 7.0 | 14.0 | 0.00 | 0.00 | 0.00 | 80 | 1009.1 |
| 20260506134516 | 60 | 200 | 6.0 | 16.0 | 0.00 | 0.00 | 0.00 | 80 | 1009.2 |
| 20260506134009 | 60 | 198 | 5.0 | 16.0 | 0.00 | 0.00 | 0.00 | 80 | 1009.2 |
| 20260506133504 | 60 | 156 | 6.0 | 11.0 | 0.00 | 0.00 | 0.00 | 79 | 1009.1 |
| 20260506133022 | 60 | 188 | 5.0 | 12.0 | 0.00 | 0.00 | 0.00 | 80 | 1008.9 |
| 20260506132513 | 60 | 209 | 8.0 | 11.0 | 0.00 | 0.00 | 0.00 | 80 | 1008.9 |
| 20260506132007 | 60 | 189 | 6.0 | 14.0 | 0.00 | 0.00 | 0.00 | 80 | 1009.0 |
| 20260506131527 | 60 | 236 | 5.0 | 17.0 | 0.00 | 0.00 | 0.00 | 81 | 1009.0 |
| 20260506131010 | 60 | 196 | 9.0 | 17.0 | 0.00 | 0.00 | 0.00 | 80 | 1009.1 |
| 20260506130510 | 60 | 225 | 6.0 | 15.0 | 0.00 | 0.00 | 0.00 | 81 | 1009.1 |
| 20260506130026 | 60 | 207 | 8.0 | 15.0 | 0.00 | 0.00 | 0.00 | 81 | 1009.3 |
| 20260506125510 | 60 | 225 | 6.0 | 14.0 | 0.00 | 0.00 | 0.00 | 81 | 1009.4 |
| 20260506125011 | 60 | 201 | 6.0 | 14.0 | 0.00 | 0.00 | 0.00 | 81 | 1009.3 |
| 20260506124528 | 59 | 179 | 6.0 | 12.0 | 0.00 | 0.00 | 0.00 | 81 | 1009.4 |
| 20260506124006 | 59 | 185 | 5.0 | 12.0 | 0.00 | 0.00 | 0.00 | 81 | 1009.3 |
| 20260506123505 | 59 | 190 | 6.0 | 12.0 | 0.00 | 0.00 | 0.00 | 81 | 1009.3 |
| 20260506123019 | 59 | 216 | 3.0 | 12.0 | 0.00 | 0.00 | 0.00 | 82 | 1009.3 |
| 20260506122506 | 59 | 215 | 6.0 | 12.0 | 0.00 | 0.00 | 0.00 | 82 | 1009.5 |
| 20260506122008 | 59 | 199 | 7.0 | 14.0 | 0.00 | 0.00 | 0.00 | 82 | 1009.5 |
| 20260506121523 | 59 | 184 | 6.0 | 16.0 | 0.00 | 0.00 | 0.00 | 83 | 1009.5 |
| 20260506121003 | 59 | 194 | 9.0 | 16.0 | 0.00 | 0.00 | 0.00 | 83 | 1009.6 |
| 20260506120504 | 58 | 150 | 4.0 | 15.0 | 0.00 | 0.00 | 0.00 | 84 | 1009.5 |
| 20260506120012 | 58 | 185 | 7.0 | 18.0 | 0.00 | 0.00 | 0.00 | 84 | 1009.5 |
| 20260506115504 | 58 | 198 | 8.0 | 18.0 | 0.00 | 0.00 | 0.00 | 85 | 1009.7 |
| 20260506115002 | 58 | 205 | 10.0 | 15.0 | 0.00 | 0.00 | 0.00 | 85 | 1009.6 |
| 20260506114514 | 57 | 180 | 6.0 | 15.0 | 0.00 | 0.00 | 0.00 | 85 | 1009.4 |
| 20260506114005 | 57 | 169 | 7.0 | 15.0 | 0.00 | 0.00 | 0.00 | 86 | 1009.5 |
| 20260506113504 | 57 | 207 | 6.0 | 14.0 | 0.00 | 0.00 | 0.00 | 86 | 1009.7 |
| 20260506113020 | 57 | 176 | 6.0 | 16.0 | 0.00 | 0.00 | 0.00 | 86 | 1009.7 |
| 20260506112504 | 57 | 207 | 6.0 | 16.0 | 0.00 | 0.00 | 0.00 | 86 | 1009.7 |
| 20260506112006 | 57 | 198 | 6.0 | 11.0 | 0.00 | 0.00 | 0.00 | 87 | 1009.7 |
| 20260506111527 | 56 | 221 | 5.0 | 15.0 | 0.00 | 0.00 | 0.00 | 87 | 1009.8 |
| 20260506111003 | 56 | 179 | 7.0 | 15.0 | 0.00 | 0.00 | 0.00 | 87 | 1009.8 |
| 20260506110503 | 56 | 186 | 6.0 | 14.0 | 0.00 | 0.00 | 0.00 | 87 | 1009.8 |
| 20260506110010 | 56 | 227 | 4.0 | 11.0 | 0.00 | 0.00 | 0.00 | 87 | 1009.6 |
| 20260506105503 | 56 | 225 | 4.0 | 11.0 | 0.00 | 0.00 | 0.00 | 86 | 1009.6 |
| 20260506105006 | 56 | 157 | 6.0 | 11.0 | 0.00 | 0.00 | 0.00 | 87 | 1009.6 |
| 20260506104510 | 56 | 149 | 6.0 | 11.0 | 0.00 | 0.00 | 0.00 | 87 | 1009.7 |
| 20260506104007 | 56 | 192 | 5.0 | 11.0 | 0.00 | 0.00 | 0.00 | 87 | 1009.9 |
| 20260506103504 | 56 | 180 | 5.0 | 11.0 | 0.00 | 0.00 | 0.00 | 86 | 1009.8 |
| 20260506103015 | 56 | 167 | 7.0 | 14.0 | 0.00 | 0.00 | 0.00 | 86 | 1009.5 |
| 20260506102507 | 56 | 203 | 6.0 | 14.0 | 0.00 | 0.00 | 0.00 | 86 | 1009.6 |
| 20260506102008 | 56 | 175 | 5.0 | 11.0 | 0.00 | 0.00 | 0.00 | 86 | 1009.7 |
| 20260506101519 | 56 | 171 | 5.0 | 11.0 | 0.00 | 0.00 | 0.00 | 85 | 1009.7 |
| 20260506101008 | 56 | 198 | 6.0 | 11.0 | 0.00 | 0.00 | 0.00 | 85 | 1009.8 |
| 20260506100507 | 56 | 200 | 4.0 | 10.0 | 0.00 | 0.00 | 0.00 | 85 | 1009.5 |
| 20260506100005 | 56 | 222 | 5.0 | 11.0 | 0.00 | 0.00 | 0.00 | 85 | 1009.5 |
| 20260506095503 | 56 | 183 | 6.0 | 11.0 | 0.00 | 0.00 | 0.00 | 85 | 1009.4 |
| 20260506095004 | 56 | 190 | 6.0 | 9.0 | 0.00 | 0.00 | 0.00 | 84 | 1009.2 |
| 20260506094526 | 56 | 176 | 5.0 | 12.0 | 0.00 | 0.00 | 0.00 | 84 | 1009.1 |
| 20260506094005 | 56 | 160 | 3.0 | 12.0 | 0.00 | 0.00 | 0.00 | 84 | 1009.3 |
| 20260506093503 | 56 | 217 | 5.0 | 10.0 | 0.00 | 0.00 | 0.00 | 84 | 1009.1 |
| 20260506093013 | 56 | 209 | 6.0 | 9.0 | 0.00 | 0.00 | 0.00 | 83 | 1009.3 |
| 20260506092503 | 56 | 198 | 5.0 | 9.0 | 0.00 | 0.00 | 0.00 | 83 | 1009.2 |
| 20260506092006 | 56 | 228 | 4.0 | 9.0 | 0.00 | 0.00 | 0.00 | 83 | 1009.2 |
| 20260506091518 | 56 | 163 | 5.0 | 9.0 | 0.00 | 0.00 | 0.00 | 82 | 1009.3 |
| 20260506091010 | 56 | 184 | 3.0 | 10.0 | 0.00 | 0.00 | 0.00 | 82 | 1009.3 |
| 20260506090504 | 56 | 184 | 6.0 | 12.0 | 0.00 | 0.00 | 0.00 | 82 | 1009.3 |
| 20260506090024 | 56 | 191 | 4.0 | 12.0 | 0.00 | 0.00 | 0.00 | 81 | 1009.3 |
| 20260506085507 | 56 | 168 | 5.0 | 10.0 | 0.00 | 0.00 | 0.00 | 81 | 1009.4 |
| 20260506085008 | 56 | 196 | 7.0 | 10.0 | 0.00 | 0.00 | 0.00 | 81 | 1009.5 |
| 20260506084505 | 57 | 226 | 4.0 | 11.0 | 0.00 | 0.00 | 0.00 | 80 | 1009.5 |
| 20260506084003 | 57 | 173 | 6.0 | 11.0 | 0.00 | 0.00 | 0.00 | 80 | 1009.5 |
| 20260506083504 | 57 | 186 | 6.0 | 10.0 | 0.00 | 0.00 | 0.00 | 80 | 1009.5 |
| 20260506083016 | 57 | 193 | 5.0 | 9.0 | 0.00 | 0.00 | 0.00 | 79 | 1009.5 |
| 20260506082505 | 57 | 199 | 6.0 | 9.0 | 0.00 | 0.00 | 0.00 | 79 | 1009.4 |
| 20260506082004 | 57 | 173 | 4.0 | 8.0 | 0.00 | 0.00 | 0.00 | 78 | 1009.5 |
| 20260506081516 | 57 | 176 | 4.0 | 8.0 | 0.00 | 0.00 | 0.00 | 78 | 1009.5 |
| 20260506081012 | 57 | 225 | 4.0 | 11.0 | 0.00 | 0.00 | 0.00 | 77 | 1009.4 |
| 20260506080507 | 57 | 205 | 3.0 | 11.0 | 0.00 | 0.00 | 0.00 | 76 | 1009.4 |
| 20260506073506 | 59 | 200 | 2.0 | 6.0 | 0.00 | 0.00 | 0.00 | 73 | 1009.4 |
| 20260506073007 | 59 | 213 | 2.0 | 7.0 | 0.00 | 0.00 | 0.00 | 73 | 1009.4 |
| 20260506072504 | 59 | 196 | 4.0 | 7.0 | 0.00 | 0.00 | 0.00 | 72 | 1009.4 |
| 20260506072003 | 59 | 192 | 2.0 | 7.0 | 0.00 | 0.00 | 0.00 | 72 | 1009.4 |
| 20260506071510 | 59 | 183 | 4.0 | 7.0 | 0.00 | 0.00 | 0.00 | 71 | 1009.5 |
| 20260506071004 | 60 | 199 | 1.0 | 6.0 | 0.00 | 0.00 | 0.00 | 71 | 1009.5 |
| 20260506070504 | 60 | 203 | 4.0 | 6.0 | 0.00 | 0.00 | 0.00 | 71 | 1009.5 |
| 20260506062511 | 61 | 188 | 4.0 | 13.0 | 0.00 | 0.00 | 0.00 | 68 | 1009.6 |
| 20260506062002 | 61 | 210 | 5.0 | 16.0 | 0.00 | 0.00 | 0.00 | 68 | 1009.6 |
| 20260506061511 | 61 | 198 | 7.0 | 16.0 | 0.00 | 0.00 | 0.00 | 68 | 1009.6 |
| 20260506061004 | 61 | 202 | 10.0 | 16.0 | 0.00 | 0.00 | 0.00 | 68 | 1009.6 |
| 20260506060506 | 62 | 192 | 6.0 | 14.0 | 0.00 | 0.00 | 0.00 | 68 | 1009.6 |
| 20260506051003 | 63 | 169 | 7.0 | 19.0 | 0.00 | 0.00 | 0.00 | 65 | 1010.0 |
| 20260506050504 | 63 | 196 | 8.0 | 17.0 | 0.00 | 0.00 | 0.00 | 65 | 1010.0 |
| 20260506045004 | 63 | 192 | 6.0 | 15.0 | 0.00 | 0.00 | 0.00 | 65 | 1010.0 |
| 20260506044519 | 62 | 178 | 9.0 | 16.0 | 0.00 | 0.00 | 0.00 | 65 | 1010.0 |
| 20260506044005 | 62 | 171 | 9.0 | 16.0 | 0.00 | 0.00 | 0.00 | 65 | 1010.1 |
| 20260506043506 | 62 | 198 | 6.0 | 10.0 | 0.00 | 0.00 | 0.00 | 65 | 1010.1 |
| 20260506043024 | 62 | 188 | 6.0 | 13.0 | 0.00 | 0.00 | 0.00 | 65 | 1010.1 |
| 20260506042508 | 62 | 190 | 6.0 | 13.0 | 0.00 | 0.00 | 0.00 | 65 | 1010.1 |
| 20260506042008 | 62 | 174 | 7.0 | 13.0 | 0.00 | 0.00 | 0.00 | 65 | 1010.1 |
| 20260506041536 | 62 | 190 | 5.0 | 12.0 | 0.00 | 0.00 | 0.00 | 65 | 1010.1 |
| 20260506041008 | 62 | 166 | 4.0 | 12.0 | 0.00 | 0.00 | 0.00 | 65 | 1010.1 |
| 20260506040512 | 62 | 214 | 7.0 | 12.0 | 0.00 | 0.00 | 0.00 | 64 | 1010.0 |
| 20260506040029 | 62 | 232 | 5.0 | 13.0 | 0.00 | 0.00 | 0.00 | 64 | 1010.1 |
| 20260506035506 | 63 | 247 | 8.0 | 13.0 | 0.00 | 0.00 | 0.00 | 64 | 1010.1 |
| 20260506035004 | 63 | 193 | 4.0 | 15.0 | 0.00 | 0.00 | 0.00 | 64 | 1010.1 |
| 20260506034525 | 63 | 191 | 8.0 | 15.0 | 0.00 | 0.00 | 0.00 | 63 | 1010.1 |
| 20260506034006 | 63 | 200 | 8.0 | 14.0 | 0.00 | 0.00 | 0.00 | 63 | 1010.2 |
| 20260506033504 | 63 | 153 | 8.0 | 13.0 | 0.00 | 0.00 | 0.00 | 63 | 1010.2 |
| 20260506033019 | 63 | 179 | 6.0 | 15.0 | 0.00 | 0.00 | 0.00 | 63 | 1010.2 |
| 20260506032507 | 63 | 196 | 5.0 | 15.0 | 0.00 | 0.00 | 0.00 | 63 | 1010.3 |
| 20260506032008 | 63 | 223 | 7.0 | 12.0 | 0.00 | 0.00 | 0.00 | 63 | 1010.2 |
| 20260506031525 | 63 | 194 | 4.0 | 9.0 | 0.00 | 0.00 | 0.00 | 63 | 1010.3 |
| 20260506031009 | 63 | 198 | 3.0 | 12.0 | 0.00 | 0.00 | 0.00 | 63 | 1010.3 |
| 20260506030514 | 63 | 173 | 6.0 | 17.0 | 0.00 | 0.00 | 0.00 | 62 | 1010.3 |
| 20260506030028 | 63 | 209 | 6.0 | 17.0 | 0.00 | 0.00 | 0.00 | 62 | 1010.3 |
| 20260506025516 | 64 | 191 | 6.0 | 13.0 | 0.00 | 0.00 | 0.00 | 61 | 1010.3 |
| 20260506025010 | 64 | 227 | 6.0 | 13.0 | 0.00 | 0.00 | 0.00 | 60 | 1010.2 |
| 20260506024513 | 64 | 203 | 7.0 | 14.0 | 0.00 | 0.00 | 0.00 | 60 | 1010.3 |
| 20260506024008 | 64 | 200 | 8.0 | 14.0 | 0.00 | 0.00 | 0.00 | 59 | 1010.2 |
| 20260506023512 | 64 | 189 | 6.0 | 11.0 | 0.00 | 0.00 | 0.00 | 60 | 1010.2 |
| 20260506023018 | 64 | 213 | 8.0 | 10.0 | 0.00 | 0.00 | 0.00 | 59 | 1010.0 |
| 20260506022511 | 64 | 202 | 7.0 | 15.0 | 0.00 | 0.00 | 0.00 | 59 | 1009.9 |
| 20260506022004 | 64 | 198 | 6.0 | 15.0 | 0.00 | 0.00 | 0.00 | 60 | 1010.0 |
| 20260506021525 | 64 | 184 | 6.0 | 11.0 | 0.00 | 0.00 | 0.00 | 59 | 1009.9 |
| 20260506021010 | 64 | 175 | 3.0 | 9.0 | 0.00 | 0.00 | 0.00 | 61 | 1009.7 |
| 20260506020511 | 64 | 202 | 3.0 | 7.0 | 0.00 | 0.00 | 0.00 | 60 | 1009.8 |
| 20260506020025 | 64 | 217 | 4.0 | 9.0 | 0.00 | 0.00 | 0.00 | 61 | 1009.8 |
| 20260506015507 | 64 | 178 | 4.0 | 9.0 | 0.00 | 0.00 | 0.00 | 60 | 1009.8 |
| 20260506015009 | 64 | 172 | 5.0 | 10.0 | 0.00 | 0.00 | 0.00 | 60 | 1009.8 |
| 20260506014525 | 64 | 190 | 3.0 | 10.0 | 0.00 | 0.00 | 0.00 | 61 | 1009.9 |
| 20260506014010 | 64 | 195 | 5.0 | 9.0 | 0.00 | 0.00 | 0.00 | 60 | 1009.9 |
| 20260506013511 | 64 | 188 | 3.0 | 11.0 | 0.00 | 0.00 | 0.00 | 60 | 1009.8 |
| 20260506013034 | 64 | 191 | 5.0 | 11.0 | 0.00 | 0.00 | 0.00 | 60 | 1009.8 |
| 20260506012507 | 64 | 179 | 3.0 | 8.0 | 0.00 | 0.00 | 0.00 | 61 | 1009.8 |
| 20260506012010 | 64 | 209 | 3.0 | 8.0 | 0.00 | 0.00 | 0.00 | 61 | 1009.8 |
| 20260506011526 | 64 | 201 | 4.0 | 7.0 | 0.00 | 0.00 | 0.00 | 61 | 1009.8 |
| 20260506011008 | 64 | 200 | 4.0 | 8.0 | 0.00 | 0.00 | 0.00 | 61 | 1009.7 |
| 20260506010506 | 64 | 159 | 5.0 | 8.0 | 0.00 | 0.00 | 0.00 | 61 | 1009.6 |
| 20260506010028 | 64 | 189 | 4.0 | 8.0 | 0.00 | 0.00 | 0.00 | 60 | 1009.6 |
| 20260506005510 | 65 | 205 | 3.0 | 7.0 | 0.00 | 0.00 | 0.00 | 61 | 1009.5 |
| 20260506005010 | 65 | 188 | 4.0 | 9.0 | 0.00 | 0.00 | 0.00 | 60 | 1009.5 |
| 20260506004527 | 65 | 208 | 5.0 | 9.0 | 0.00 | 0.00 | 0.00 | 60 | 1009.4 |
| 20260506004012 | 65 | 186 | 4.0 | 9.0 | 0.00 | 0.00 | 0.00 | 59 | 1009.4 |
| 20260506003512 | 65 | 188 | 4.0 | 10.0 | 0.00 | 0.00 | 0.00 | 59 | 1009.3 |
| 20260506003027 | 66 | 180 | 4.0 | 10.0 | 0.00 | 0.00 | 0.00 | 58 | 1009.3 |
| 20260506002510 | 66 | 186 | 4.0 | 12.0 | 0.00 | 0.00 | 0.00 | 58 | 1009.2 |
| 20260506002007 | 66 | 219 | 5.0 | 12.0 | 0.00 | 0.00 | 0.00 | 57 | 1009.0 |
| 20260506001519 | 66 | 208 | 5.0 | 12.0 | 0.00 | 0.00 | 0.00 | 57 | 1008.9 |
| 20260506001007 | 67 | 211 | 5.0 | 12.0 | 0.00 | 0.00 | 0.00 | 56 | 1008.9 |
| 20260506000506 | 67 | 185 | 5.0 | 12.0 | 0.00 | 0.00 | 0.00 | 56 | 1008.8 |
| 20260506000025 | 68 | 200 | 6.0 | 12.0 | 0.00 | 0.00 | 0.00 | 55 | 1008.8 |
| 20260505235506 | 68 | 175 | 8.0 | 15.0 | 0.00 | 0.00 | 0.00 | 54 | 1008.7 |
| 20260505235012 | 69 | 233 | 6.0 | 15.0 | 0.00 | 0.00 | 0.00 | 53 | 1008.6 |
| 20260505234526 | 69 | 174 | 5.0 | 11.0 | 0.00 | 0.00 | 0.00 | 53 | 1008.5 |
| 20260505234008 | 69 | 200 | 5.0 | 12.0 | 0.00 | 0.00 | 0.00 | 52 | 1008.5 |
| 20260505233511 | 70 | 209 | 7.0 | 12.0 | 0.00 | 0.00 | 0.00 | 51 | 1008.3 |
| 20260505233028 | 70 | 219 | 4.0 | 13.0 | 0.00 | 0.00 | 0.00 | 50 | 1008.2 |
| 20260505232514 | 70 | 188 | 6.0 | 13.0 | 0.00 | 0.00 | 0.00 | 49 | 1008.2 |
| 20260505232011 | 70 | 217 | 8.0 | 17.0 | 0.00 | 0.00 | 0.00 | 49 | 1008.1 |
| 20260505231529 | 70 | 222 | 10.0 | 19.0 | 0.00 | 0.00 | 0.00 | 49 | 1008.1 |
| 20260505231008 | 71 | 204 | 8.0 | 19.0 | 0.00 | 0.00 | 0.00 | 48 | 1008.0 |
| 20260505230509 | 71 | 190 | 7.0 | 17.0 | 0.00 | 0.00 | 0.00 | 48 | 1007.9 |
| 20260505230020 | 71 | 250 | 8.0 | 16.0 | 0.00 | 0.00 | 0.00 | 47 | 1007.9 |
| 20260505225509 | 71 | 198 | 7.0 | 16.0 | 0.00 | 0.00 | 0.00 | 48 | 1007.8 |
| 20260505225008 | 71 | 234 | 11.0 | 20.0 | 0.00 | 0.00 | 0.00 | 47 | 1007.8 |
| 20260505224524 | 71 | 198 | 12.0 | 20.0 | 0.00 | 0.00 | 0.00 | 47 | 1007.8 |
| 20260505224007 | 71 | 205 | 9.0 | 18.0 | 0.00 | 0.00 | 0.00 | 47 | 1007.7 |
| 20260505223510 | 72 | 192 | 10.0 | 19.0 | 0.00 | 0.00 | 0.00 | 47 | 1007.7 |
| 20260505223037 | 72 | 168 | 10.0 | 19.0 | 0.00 | 0.00 | 0.00 | 47 | 1007.5 |
| 20260505222515 | 72 | 199 | 9.0 | 20.0 | 0.00 | 0.00 | 0.00 | 47 | 1007.5 |
| 20260505222003 | 72 | 223 | 8.0 | 20.0 | 0.00 | 0.00 | 0.00 | 46 | 1007.5 |
| 20260505221525 | 73 | 174 | 10.0 | 20.0 | 0.00 | 0.00 | 0.00 | 46 | 1007.5 |
| 20260505221005 | 73 | 242 | 11.0 | 20.0 | 0.00 | 0.00 | 0.00 | 46 | 1007.3 |
| 20260505220506 | 73 | 176 | 9.0 | 23.0 | 0.00 | 0.00 | 0.00 | 46 | 1007.4 |
| 20260505220029 | 73 | 198 | 11.0 | 27.0 | 0.00 | 0.00 | 0.00 | 46 | 1007.3 |
| 20260505215506 | 73 | 206 | 13.0 | 27.0 | 0.00 | 0.00 | 0.00 | 46 | 1007.3 |
| 20260505215004 | 73 | 195 | 11.0 | 26.0 | 0.00 | 0.00 | 0.00 | 45 | 1007.3 |
| 20260505214533 | 74 | 179 | 13.0 | 25.0 | 0.00 | 0.00 | 0.00 | 45 | 1007.3 |
| 20260505214001 | 74 | 223 | 10.0 | 22.0 | 0.00 | 0.00 | 0.00 | 45 | 1007.2 |
| 20260505213502 | 74 | 177 | 10.0 | 23.0 | 0.00 | 0.00 | 0.00 | 46 | 1007.2 |
| 20260505213007 | 74 | 190 | 11.0 | 24.0 | 0.00 | 0.00 | 0.00 | 45 | 1007.2 |
| 20260505212503 | 74 | 234 | 14.0 | 24.0 | 0.00 | 0.00 | 0.00 | 43 | 1007.3 |
| 20260505212008 | 75 | 208 | 12.0 | 26.0 | 0.00 | 0.00 | 0.00 | 44 | 1007.3 |
| 20260505211512 | 75 | 174 | 14.0 | 26.0 | 0.00 | 0.00 | 0.00 | 43 | 1007.3 |
| 20260505211003 | 75 | 161 | 13.0 | 22.0 | 0.00 | 0.00 | 0.00 | 42 | 1007.3 |
| 20260505210503 | 75 | 227 | 13.0 | 27.0 | 0.00 | 0.00 | 0.00 | 43 | 1007.2 |
| 20260505210016 | 75 | 218 | 10.0 | 27.0 | 0.00 | 0.00 | 0.00 | 44 | 1007.2 |
| 20260505205506 | 75 | 236 | 10.0 | 23.0 | 0.00 | 0.00 | 0.00 | 43 | 1007.2 |
| 20260505205008 | 75 | 219 | 14.0 | 21.0 | 0.00 | 0.00 | 0.00 | 44 | 1007.3 |
| 20260505204526 | 75 | 199 | 5.0 | 21.0 | 0.00 | 0.00 | 0.00 | 45 | 1007.3 |
| 20260505204008 | 75 | 203 | 13.0 | 25.0 | 0.00 | 0.00 | 0.00 | 43 | 1007.2 |
| 20260505203507 | 75 | 129 | 10.0 | 25.0 | 0.00 | 0.00 | 0.00 | 43 | 1007.3 |
| 20260505203007 | 75 | 190 | 14.0 | 24.0 | 0.00 | 0.00 | 0.00 | 43 | 1007.3 |
| 20260505202503 | 75 | 210 | 13.0 | 25.0 | 0.00 | 0.00 | 0.00 | 43 | 1007.2 |
| 20260505202002 | 76 | 230 | 15.0 | 25.0 | 0.00 | 0.00 | 0.00 | 43 | 1007.2 |
| 20260505201508 | 76 | 249 | 6.0 | 17.0 | 0.00 | 0.00 | 0.00 | 43 | 1007.2 |
| 20260505201003 | 76 | 200 | 8.0 | 25.0 | 0.00 | 0.00 | 0.00 | 42 | 1007.2 |
| 20260505200504 | 76 | 93 | 10.0 | 28.0 | 0.00 | 0.00 | 0.00 | 43 | 1007.3 |
| 20260505200019 | 76 | 183 | 10.0 | 28.0 | 0.00 | 0.00 | 0.00 | 42 | 1007.2 |
| 20260505195504 | 76 | 221 | 13.0 | 27.0 | 0.00 | 0.00 | 0.00 | 41 | 1007.4 |
| 20260505195010 | 76 | 234 | 17.0 | 25.0 | 0.00 | 0.00 | 0.00 | 39 | 1007.4 |
| 20260505194517 | 76 | 84 | 13.0 | 27.0 | 0.00 | 0.00 | 0.00 | 40 | 1007.6 |
| 20260505194008 | 76 | 220 | 15.0 | 28.0 | 0.00 | 0.00 | 0.00 | 41 | 1007.5 |
| 20260505193504 | 76 | 179 | 8.0 | 28.0 | 0.00 | 0.00 | 0.00 | 40 | 1007.5 |
| 20260505193018 | 77 | 227 | 12.0 | 23.0 | 0.00 | 0.00 | 0.00 | 40 | 1007.7 |
| 20260505192509 | 76 | 214 | 10.0 | 26.0 | 0.00 | 0.00 | 0.00 | 41 | 1007.6 |
| 20260505192007 | 76 | 218 | 12.0 | 26.0 | 0.00 | 0.00 | 0.00 | 41 | 1007.5 |
| 20260505191529 | 76 | 200 | 11.0 | 30.0 | 0.00 | 0.00 | 0.00 | 41 | 1007.3 |
| 20260505191013 | 76 | 206 | 12.0 | 30.0 | 0.00 | 0.00 | 0.00 | 42 | 1007.7 |
| 20260505190509 | 76 | 234 | 13.0 | 22.0 | 0.00 | 0.00 | 0.00 | 40 | 1007.9 |
| 20260505190018 | 76 | 236 | 10.0 | 21.0 | 0.00 | 0.00 | 0.00 | 41 | 1007.9 |
| 20260505185507 | 76 | 182 | 13.0 | 21.0 | 0.00 | 0.00 | 0.00 | 40 | 1007.9 |
| 20260505185007 | 76 | 167 | 10.0 | 24.0 | 0.00 | 0.00 | 0.00 | 39 | 1007.9 |
| 20260505184528 | 77 | 221 | 12.0 | 24.0 | 0.00 | 0.00 | 0.00 | 38 | 1008.1 |
| 20260505184007 | 77 | 163 | 13.0 | 20.0 | 0.00 | 0.00 | 0.00 | 37 | 1008.2 |
| 20260505183507 | 77 | 213 | 8.0 | 22.0 | 0.00 | 0.00 | 0.00 | 38 | 1008.1 |
| 20260505183025 | 77 | 217 | 11.0 | 23.0 | 0.00 | 0.00 | 0.00 | 38 | 1008.1 |